Change the Weather History Date:

Sunday, December 23, 2012

  Actual Average (KDET) Record (KDET)
Temperature  
Mean Temperature 32 °F -  
Max Temperature 39 °F 35 °F 55 °F (1957)
Min Temperature 25 °F 23 °F -5 °F (1960)
Degree Days  
Heating Degree Days 33    
Moisture  
Dew Point 23 °F    
Average Humidity 72    
Maximum Humidity 88    
Minimum Humidity 56    
Precipitation  
Precipitation 0.00 in - - ()
Sea Level Pressure  
Sea Level Pressure 29.97 in    
Wind  
Wind Speed 6 mph (West)    
Max Wind Speed 13 mph    
Max Gust Speed 18 mph    
Visibility 10 miles    
Events      
Averages and records for this station are not official NWS values.
T = Trace of Precipitation, MM = Missing Value Source: NWS Daily Summary

Daily Weather History Graph

Daily Weather History Graph

Search for Another Location

Airport or City:

Trip Planner

Search our weather history database for the weather conditions in past years. The results will help you decide how hot, cold, wet, or windy it might be!

Date:

Astronomy

Dec. 23, 2012 Rise Set
Actual Time 8:00 AM EST 5:03 PM EST
Civil Twilight 7:28 AM EST 5:36 PM EST
Nautical Twilight 6:52 AM EST 6:11 PM EST
Astronomical Twilight 6:18 AM EST 6:45 PM EST
Moon 1:56 PM EST (12/23) 3:39 AM EST (12/23)
Length of Visible Light 10h 07m
Length of Day
9h 03m
Waxing Gibbous, 81% of the Moon is Illuminated
Dec 23
Waxing Gibbous
Dec 28
Full
Jan 4
Last Quarter
Jan 11
New
Jan 18
First Quarter

Hourly Weather History & Observations

Time (EST) Temp. Windchill Dew Point Humidity Pressure Visibility Wind Dir Wind Speed Gust Speed Precip Events Conditions
12:15 AM 32.0 °F 26.4 °F 26.6 °F 80% 30.00 in 10.0 mi SW 5.8 mph - N/A   Clear
12:35 AM 31.6 °F 25.1 °F 26.6 °F 82% 30.00 in 10.0 mi SW 6.9 mph - N/A   Clear
12:54 AM 31.1 °F 25.4 °F 26.6 °F 83% 29.99 in 10.0 mi SW 5.8 mph - N/A   Clear
1:15 AM 30.7 °F 24.9 °F 26.2 °F 83% 29.99 in 10.0 mi SW 5.8 mph - N/A   Clear
1:35 AM 30.2 °F 23.4 °F 26.1 °F 85% 29.99 in 10.0 mi SW 6.9 mph - N/A   Clear
1:54 AM 30.0 °F 23.2 °F 25.5 °F 83% 29.98 in 10.0 mi SW 6.9 mph - N/A   Clear
2:15 AM 29.5 °F 23.4 °F 24.6 °F 82% 29.98 in 10.0 mi SW 5.8 mph - N/A   Clear
2:35 AM 29.1 °F 23.0 °F 24.8 °F 84% 29.97 in 10.0 mi SW 5.8 mph - N/A   Clear
2:54 AM 28.8 °F 23.7 °F 24.3 °F 83% 29.97 in 10.0 mi SW 4.6 mph - N/A   Clear
3:15 AM 28.2 °F 23.1 °F 24.1 °F 84% 29.95 in 10.0 mi SW 4.6 mph - N/A   Clear
3:34 AM 28.0 °F 22.8 °F 23.9 °F 84% 29.95 in 10.0 mi SW 4.6 mph - N/A   Clear
3:54 AM 27.7 °F 21.3 °F 23.5 °F 84% 29.93 in 10.0 mi SW 5.8 mph - N/A   Clear
4:15 AM 27.5 °F 21.1 °F 23.0 °F 83% 29.93 in 10.0 mi SW 5.8 mph - N/A   Clear
4:34 AM 27.1 °F 20.7 °F 22.8 °F 84% 29.92 in 10.0 mi SW 5.8 mph - N/A   Clear
4:55 AM 26.8 °F 22.8 °F 22.6 °F 84% 29.92 in 10.0 mi WSW 3.5 mph - N/A   Clear
5:14 AM 26.6 °F - 22.6 °F 85% 29.92 in 10.0 mi Calm Calm - N/A   Clear
5:34 AM 26.2 °F 20.7 °F 22.5 °F 86% 29.92 in 10.0 mi SW 4.6 mph - N/A   Clear
5:55 AM 26.1 °F 21.9 °F 22.5 °F 86% 29.91 in 10.0 mi WSW 3.5 mph - N/A   Clear
6:14 AM 25.7 °F 20.1 °F 22.3 °F 87% 29.90 in 10.0 mi SW 4.6 mph - N/A   Clear
6:35 AM 25.7 °F 18.0 °F 22.5 °F 88% 29.90 in 10.0 mi SW 6.9 mph - N/A   Clear
6:55 AM 25.7 °F 20.1 °F 22.1 °F 86% 29.91 in 10.0 mi WSW 4.6 mph - N/A   Clear
7:14 AM 25.5 °F 19.9 °F 22.1 °F 87% 29.92 in 7.0 mi SW 4.6 mph - N/A   Clear
7:35 AM 25.3 °F 19.7 °F 22.1 °F 87% 29.92 in 7.0 mi SW 4.6 mph - N/A   Clear
7:55 AM 25.2 °F 19.5 °F 21.9 °F 87% 29.92 in 7.0 mi SW 4.6 mph - N/A   Clear
8:14 AM 25.2 °F 20.9 °F 21.9 °F 87% 29.92 in 7.0 mi WSW 3.5 mph - N/A   Clear
8:35 AM 25.2 °F 20.9 °F 21.9 °F 87% 29.93 in 7.0 mi SW 3.5 mph - N/A   Clear
8:55 AM 25.7 °F 20.1 °F 22.1 °F 86% 29.93 in 7.0 mi SW 4.6 mph - N/A   Clear
9:14 AM 26.6 °F 22.6 °F 22.1 °F 83% 29.94 in 10.0 mi WSW 3.5 mph - N/A   Clear
9:35 AM 27.5 °F 22.2 °F 22.1 °F 80% 29.94 in 10.0 mi WSW 4.6 mph - N/A   Clear
9:54 AM 28.6 °F 24.8 °F 22.8 °F 79% 29.94 in 10.0 mi WSW 3.5 mph - N/A   Clear
10:14 AM 30.4 °F - 23.7 °F 76% 29.94 in 10.0 mi Calm Calm - N/A   Clear
10:35 AM 32.4 °F 26.0 °F 24.3 °F 72% 29.95 in 10.0 mi NW 6.9 mph - N/A   Clear
10:54 AM 33.1 °F 27.7 °F 24.1 °F 70% 29.94 in 10.0 mi NW 5.8 mph - N/A   Clear
11:15 AM 34.3 °F 29.2 °F 24.4 °F 67% 29.94 in 10.0 mi WNW 5.8 mph - N/A   Clear
11:34 AM 35.8 °F 30.9 °F 24.1 °F 62% 29.93 in 10.0 mi NW 5.8 mph - N/A   Clear
12:15 PM 37.0 °F 31.0 °F 24.4 °F 60% 29.94 in 10.0 mi WNW 8.1 mph - N/A   Clear
12:34 PM 36.7 °F 29.4 °F 24.6 °F 62% 29.93 in 10.0 mi NW 10.4 mph - N/A   Clear
12:55 PM 37.4 °F 31.4 °F 24.6 °F 60% 29.93 in 10.0 mi NW 8.1 mph - N/A   Scattered Clouds
1:14 PM 38.7 °F 32.9 °F 25.0 °F 58% 29.93 in 10.0 mi West 8.1 mph - N/A   Mostly Cloudy
1:34 PM 39.0 °F 31.4 °F 24.4 °F 56% 29.93 in 10.0 mi NW 12.7 mph 18.4 mph N/A   Mostly Cloudy
1:55 PM 37.8 °F 30.7 °F 24.4 °F 59% 29.93 in 10.0 mi WNW 10.4 mph - N/A   Mostly Cloudy
2:14 PM 36.7 °F 29.4 °F 23.7 °F 59% 29.93 in 10.0 mi WNW 10.4 mph - N/A   Scattered Clouds
2:35 PM 36.9 °F 30.1 °F 24.1 °F 60% 29.94 in 10.0 mi North 9.2 mph - N/A   Overcast
2:54 PM 36.0 °F 30.3 °F 23.7 °F 61% 29.94 in 10.0 mi NW 6.9 mph - N/A   Mostly Cloudy
3:14 PM 35.8 °F 27.8 °F 23.7 °F 62% 29.95 in 10.0 mi NNW 11.5 mph - N/A   Mostly Cloudy
3:35 PM 35.6 °F 29.2 °F 23.5 °F 62% 29.95 in 10.0 mi NW 8.1 mph - N/A   Overcast
3:54 PM 35.6 °F 29.9 °F 23.4 °F 61% 29.96 in 10.0 mi NW 6.9 mph - N/A   Overcast
4:15 PM 35.4 °F 29.0 °F 23.2 °F 61% 29.97 in 10.0 mi NW 8.1 mph - N/A   Overcast
4:35 PM 34.9 °F 29.0 °F 23.0 °F 62% 29.98 in 10.0 mi NNW 6.9 mph - N/A   Overcast
4:54 PM 34.7 °F 31.8 °F 22.8 °F 62% 29.98 in 10.0 mi NNW 3.5 mph - N/A   Overcast
5:15 PM 34.7 °F 28.1 °F 22.6 °F 61% 30.00 in 10.0 mi NW 8.1 mph - N/A   Overcast
5:34 PM 34.3 °F 30.2 °F 22.1 °F 61% 30.00 in 10.0 mi NW 4.6 mph - N/A   Overcast
5:55 PM 34.7 °F 29.6 °F 22.5 °F 61% 30.01 in 10.0 mi NNW 5.8 mph - N/A   Overcast
6:14 PM 34.0 °F 28.0 °F 22.6 °F 63% 30.01 in 10.0 mi NNW 6.9 mph - N/A   Overcast
6:35 PM 33.8 °F 27.7 °F 21.7 °F 61% 30.02 in 10.0 mi NNW 6.9 mph - N/A   Overcast
6:55 PM 33.8 °F 27.0 °F 21.7 °F 61% 30.02 in 10.0 mi North 8.1 mph - N/A   Overcast
7:14 PM 33.8 °F 29.6 °F 21.7 °F 61% 30.02 in 10.0 mi NNW 4.6 mph - N/A   Overcast
7:35 PM 33.6 °F 29.4 °F 21.9 °F 62% 30.03 in 10.0 mi NW 4.6 mph - N/A   Overcast
7:55 PM 33.8 °F 30.8 °F 22.1 °F 62% 30.04 in 10.0 mi NW 3.5 mph - N/A   Overcast
8:14 PM 33.8 °F - 22.1 °F 62% 30.04 in 10.0 mi Calm Calm - N/A   Overcast
8:35 PM 33.8 °F - 22.1 °F 62% 30.04 in 10.0 mi Calm Calm - N/A   Overcast
8:54 PM 34.2 °F - 22.1 °F 61% 30.05 in 10.0 mi Calm Calm - N/A   Overcast
9:15 PM 34.2 °F 31.2 °F 22.6 °F 63% 30.05 in 10.0 mi WNW 3.5 mph - N/A   Overcast
9:54 PM 33.8 °F 29.6 °F 22.1 °F 62% 30.05 in 10.0 mi NW 4.6 mph - N/A   Overcast
10:15 PM 33.4 °F 27.3 °F 22.1 °F 63% 30.05 in 10.0 mi NW 6.9 mph - N/A   Overcast
10:35 PM 33.4 °F - 22.1 °F 63% 30.05 in 10.0 mi Calm Calm - N/A   Overcast
10:54 PM 32.9 °F - 21.9 °F 64% 30.05 in 10.0 mi Calm Calm - N/A   Overcast
11:15 PM 32.9 °F 28.5 °F 22.1 °F 65% 30.04 in 10.0 mi North 4.6 mph - N/A   Overcast
11:34 PM 32.7 °F 28.3 °F 22.8 °F 67% 30.03 in 10.0 mi NE 4.6 mph - N/A   Overcast
11:54 PM 32.0 °F 28.7 °F 22.5 °F 68% 30.03 in 10.0 mi NNE 3.5 mph - N/A   Overcast